Time,TemperatureF,DewpointF,PressureIn,WindDirection,WindDirectionDegrees,WindSpeedMPH,WindSpeedGustMPH,Humidity,HourlyPrecipIn,Conditions,Clouds,dailyrainin,SoftwareType,DateUTC
2013-05-21 00:02:00,60.0,55.0,-100.00,SW,225,10.0,12.0,83,0.00,,,-99.99,,2013-05-21 05:02:00,
2013-05-21 00:12:00,60.0,55.0,-100.00,SW,225,10.0,12.0,82,0.00,,,-99.99,,2013-05-21 05:12:00,
2013-05-21 00:22:00,60.0,55.0,-100.00,SW,235,10.0,12.0,82,0.00,,,-99.99,,2013-05-21 05:22:00,
2013-05-21 00:32:00,59.0,54.0,-100.00,SW,235,11.0,13.0,82,0.00,,,-99.99,,2013-05-21 05:32:00,
2013-05-21 00:42:00,59.0,54.0,-100.00,SW,235,9.0,12.0,84,0.00,,,-99.99,,2013-05-21 05:42:00,
2013-05-21 00:51:00,58.0,54.0,-100.00,WSW,245,9.0,11.0,86,0.00,,,-99.99,,2013-05-21 05:51:00,
2013-05-21 01:02:00,58.0,54.0,-100.00,WSW,255,9.0,12.0,87,0.00,,,-99.99,,2013-05-21 06:02:00,
2013-05-21 01:12:00,58.0,55.0,-100.00,West,260,11.0,14.0,88,0.00,,,-99.99,,2013-05-21 06:12:00,
2013-05-21 01:21:00,58.0,55.0,-100.00,West,260,10.0,14.0,88,0.00,,,-99.99,,2013-05-21 06:21:00,
2013-05-21 01:32:00,58.0,55.0,-100.00,West,260,10.0,14.0,88,0.00,,,-99.99,,2013-05-21 06:32:00,
2013-05-21 01:42:00,59.0,56.0,-100.00,West,275,12.0,17.0,90,0.00,,,-99.99,,2013-05-21 06:42:00,
2013-05-21 01:51:00,58.0,56.0,-100.00,West,260,12.0,14.0,92,0.00,,,-99.99,,2013-05-21 06:51:00,
2013-05-21 02:01:00,58.0,56.0,-100.00,West,260,12.0,14.0,92,0.00,,,-99.99,,2013-05-21 07:01:00,
2013-05-21 02:11:00,58.0,56.0,-100.00,West,270,10.0,17.0,92,0.00,,,-99.99,,2013-05-21 07:11:00,
2013-05-21 02:22:00,58.0,55.0,-100.00,WNW,285,12.0,17.0,92,0.00,,,-99.99,,2013-05-21 07:22:00,
2013-05-21 02:31:00,58.0,55.0,-100.00,WNW,285,12.0,17.0,92,0.00,,,-99.99,,2013-05-21 07:31:00,
2013-05-21 02:41:00,58.0,55.0,-100.00,WNW,285,11.0,19.0,92,0.00,,,-99.99,,2013-05-21 07:41:00,
2013-05-21 02:52:00,58.0,55.0,-100.00,WNW,285,11.0,12.0,92,0.00,,,-99.99,,2013-05-21 07:52:00,
2013-05-21 03:02:00,58.0,55.0,-100.00,West,270,9.0,12.0,92,0.00,,,-99.99,,2013-05-21 08:02:00,
2013-05-21 03:11:00,58.0,55.0,-100.00,West,270,9.0,12.0,92,0.00,,,-99.99,,2013-05-21 08:11:00,
2013-05-21 03:21:00,58.0,55.0,-100.00,West,270,9.0,12.0,92,0.00,,,-99.99,,2013-05-21 08:21:00,
2013-05-21 03:31:00,57.0,55.0,-100.00,West,275,13.0,16.0,92,0.00,,,-99.99,,2013-05-21 08:31:00,
2013-05-21 03:41:00,57.0,55.0,-100.00,West,275,13.0,16.0,92,0.00,,,-99.99,,2013-05-21 08:41:00,
2013-05-21 03:52:00,56.0,54.0,-100.00,West,270,12.0,15.0,92,0.00,,,-99.99,,2013-05-21 08:52:00,
2013-05-21 04:01:00,56.0,54.0,-100.00,West,275,13.0,16.0,92,0.00,,,-99.99,,2013-05-21 09:01:00,
2013-05-21 04:11:00,56.0,54.0,-100.00,West,275,12.0,16.0,92,0.00,,,-99.99,,2013-05-21 09:11:00,
2013-05-21 04:21:00,56.0,54.0,-100.00,West,275,11.0,16.0,92,0.00,,,-99.99,,2013-05-21 09:21:00,
2013-05-21 04:32:00,56.0,54.0,-100.00,West,270,12.0,17.0,92,0.00,,,-99.99,,2013-05-21 09:32:00,
2013-05-21 04:42:00,56.0,54.0,-100.00,West,270,12.0,17.0,92,0.00,,,-99.99,,2013-05-21 09:42:00,
2013-05-21 04:52:00,56.0,54.0,-100.00,West,270,12.0,17.0,92,0.00,,,-99.99,,2013-05-21 09:52:00,
2013-05-21 05:02:00,56.0,54.0,-100.00,West,270,12.0,17.0,92,0.00,,,-99.99,,2013-05-21 10:02:00,
2013-05-21 05:12:00,56.0,54.0,-100.00,West,270,12.0,16.0,92,0.00,,,-99.99,,2013-05-21 10:12:00,
2013-05-21 05:22:00,56.0,54.0,-100.00,West,265,14.0,17.0,92,0.00,,,-99.99,,2013-05-21 10:22:00,
2013-05-21 05:32:00,56.0,54.0,-100.00,West,265,14.0,17.0,92,0.00,,,-99.99,,2013-05-21 10:32:00,
2013-05-21 05:42:00,55.0,53.0,-100.00,West,265,12.0,19.0,92,0.00,,,-99.99,,2013-05-21 10:42:00,
2013-05-21 05:52:00,54.0,52.0,-100.00,West,265,14.0,19.0,92,0.00,,,-99.99,,2013-05-21 10:52:00,
2013-05-21 06:02:00,54.0,52.0,-100.00,West,265,17.0,21.0,92,0.00,,,-99.99,,2013-05-21 11:02:00,
2013-05-21 06:12:00,55.0,53.0,-100.00,WSW,250,13.0,19.0,92,0.00,,,-99.99,,2013-05-21 11:12:00,
2013-05-21 06:21:00,55.0,53.0,-100.00,WSW,250,13.0,19.0,92,0.00,,,-99.99,,2013-05-21 11:21:00,
2013-05-21 06:32:00,54.0,52.0,-100.00,WSW,255,14.0,17.0,92,0.00,,,-99.99,,2013-05-21 11:32:00,
2013-05-21 06:41:00,55.0,52.0,-100.00,West,260,13.0,21.0,91,0.00,,,-99.99,,2013-05-21 11:41:00,
2013-05-21 06:51:00,54.0,52.0,-100.00,WSW,250,12.0,17.0,91,0.00,,,-99.99,,2013-05-21 11:51:00,
2013-05-21 07:01:00,54.0,52.0,-100.00,WSW,250,12.0,14.0,91,0.00,,,-99.99,,2013-05-21 12:01:00,
2013-05-21 07:11:00,54.0,52.0,-100.00,WSW,250,11.0,12.0,91,0.00,,,-99.99,,2013-05-21 12:11:00,
2013-05-21 07:21:00,55.0,53.0,-100.00,SW,235,10.0,14.0,91,0.00,,,-99.99,,2013-05-21 12:21:00,
2013-05-21 07:32:00,56.0,53.0,-100.00,SW,230,12.0,16.0,91,0.00,,,-99.99,,2013-05-21 12:32:00,
2013-05-21 07:42:00,55.0,53.0,-100.00,WSW,245,16.0,20.0,91,0.00,,,-99.99,,2013-05-21 12:42:00,
2013-05-21 07:51:00,54.0,52.0,-100.00,West,275,10.0,16.0,91,0.00,,,-99.99,,2013-05-21 12:51:00,
2013-05-21 08:01:00,54.0,52.0,-100.00,West,275,10.0,16.0,91,0.00,,,-99.99,,2013-05-21 13:01:00,
2013-05-21 08:12:00,56.0,54.0,-100.00,WSW,240,17.0,23.0,91,0.00,,,-99.99,,2013-05-21 13:12:00,
2013-05-21 08:22:00,55.0,53.0,-100.00,WSW,245,15.0,20.0,91,0.00,,,-99.99,,2013-05-21 13:22:00,
2013-05-21 08:32:00,56.0,54.0,-100.00,WSW,250,14.0,20.0,91,0.00,,,-99.99,,2013-05-21 13:32:00,
2013-05-21 08:41:00,57.0,54.0,-100.00,WSW,250,16.0,21.0,89,0.00,,,-99.99,,2013-05-21 13:41:00,
2013-05-21 08:52:00,58.0,54.0,-100.00,WSW,250,16.0,18.0,86,0.00,,,-99.99,,2013-05-21 13:52:00,
2013-05-21 09:01:00,56.0,52.0,-100.00,West,270,16.0,19.0,86,0.25,,,-99.99,,2013-05-21 14:01:00,
2013-05-21 09:11:00,55.0,52.0,-100.00,WSW,240,15.0,19.0,90,0.58,,,-99.99,,2013-05-21 14:11:00,
2013-05-21 09:21:00,55.0,53.0,-100.00,WSW,240,15.0,19.0,91,0.30,,,-99.99,,2013-05-21 14:21:00,
2013-05-21 09:32:00,56.0,53.0,-100.00,WSW,240,14.0,19.0,92,0.00,,,-99.99,,2013-05-21 14:32:00,
2013-05-21 09:41:00,56.0,54.0,-100.00,WSW,240,12.0,18.0,92,0.00,,,-99.99,,2013-05-21 14:41:00,
2013-05-21 09:51:00,57.0,55.0,-100.00,WSW,250,12.0,17.0,91,0.00,,,-99.99,,2013-05-21 14:51:00,
2013-05-21 10:01:00,55.0,53.0,-100.00,WSW,250,19.0,23.0,90,0.00,,,-99.99,,2013-05-21 15:01:00,
2013-05-21 10:11:00,55.0,53.0,-100.00,WSW,250,19.0,23.0,90,0.00,,,-99.99,,2013-05-21 15:11:00,
2013-05-21 10:21:00,57.0,53.0,-100.00,WSW,250,17.0,23.0,85,0.00,,,-99.99,,2013-05-21 15:21:00,
2013-05-21 10:33:00,57.0,52.0,-100.00,WSW,250,19.0,24.0,81,0.00,,,-99.99,,2013-05-21 15:33:00,
2013-05-21 10:42:00,58.0,52.0,-100.00,WSW,245,16.0,26.0,81,0.00,,,-99.99,,2013-05-21 15:42:00,
2013-05-21 10:52:00,60.0,54.0,-100.00,WSW,250,17.0,22.0,80,0.00,,,-99.99,,2013-05-21 15:52:00,
2013-05-21 11:03:00,60.0,52.0,-100.00,WSW,240,17.0,22.0,75,0.00,,,-99.99,,2013-05-21 16:03:00,
2013-05-21 11:12:00,61.0,52.0,-100.00,SW,225,19.0,24.0,73,0.00,,,-99.99,,2013-05-21 16:12:00,
2013-05-21 11:23:00,61.0,52.0,-100.00,SW,225,19.0,24.0,73,0.00,,,-99.99,,2013-05-21 16:23:00,
2013-05-21 11:32:00,58.0,51.0,-100.00,SW,230,17.0,21.0,75,0.00,,,-99.99,,2013-05-21 16:32:00,
2013-05-21 11:42:00,60.0,52.0,-100.00,WSW,245,13.0,19.0,74,0.00,,,-99.99,,2013-05-21 16:42:00,
2013-05-21 11:52:00,59.0,51.0,-100.00,WSW,250,15.0,19.0,74,0.00,,,-99.99,,2013-05-21 16:52:00,
2013-05-21 12:02:00,60.0,51.0,-100.00,SW,230,16.0,22.0,72,0.00,,,-99.99,,2013-05-21 17:02:00,
2013-05-21 12:12:00,60.0,51.0,-100.00,SW,220,16.0,24.0,70,0.00,,,-99.99,,2013-05-21 17:12:00,
2013-05-21 12:23:00,60.0,50.0,-100.00,SW,225,17.0,22.0,69,0.00,,,-99.99,,2013-05-21 17:23:00,
2013-05-21 12:32:00,59.0,49.0,-100.00,WSW,240,16.0,21.0,69,0.00,,,-99.99,,2013-05-21 17:32:00,
2013-05-21 12:43:00,59.0,49.0,-100.00,WSW,240,16.0,21.0,69,0.00,,,-99.99,,2013-05-21 17:43:00,
2013-05-21 12:52:00,59.0,49.0,-100.00,SW,225,15.0,20.0,70,0.00,,,-99.99,,2013-05-21 17:52:00,
2013-05-21 13:01:00,59.0,49.0,-100.00,SW,225,16.0,20.0,71,0.00,,,-99.99,,2013-05-21 18:01:00,
2013-05-21 13:12:00,59.0,49.0,-100.00,SW,230,16.0,20.0,71,0.00,,,-99.99,,2013-05-21 18:12:00,
2013-05-21 13:22:00,59.0,49.0,-100.00,SW,230,14.0,19.0,70,0.00,,,-99.99,,2013-05-21 18:22:00,
2013-05-21 13:32:00,58.0,49.0,-100.00,SW,225,14.0,19.0,71,0.00,,,-99.99,,2013-05-21 18:32:00,
2013-05-21 13:42:00,58.0,49.0,-100.00,SW,225,14.0,19.0,71,0.00,,,-99.99,,2013-05-21 18:42:00,
2013-05-21 13:51:00,58.0,49.0,-100.00,SW,225,14.0,19.0,71,0.00,,,-99.99,,2013-05-21 18:51:00,
2013-05-21 14:01:00,58.0,49.0,-100.00,SW,225,14.0,19.0,71,0.00,,,-99.99,,2013-05-21 19:01:00,
2013-05-21 14:11:00,58.0,49.0,-100.00,SW,225,14.0,18.0,70,0.00,,,-99.99,,2013-05-21 19:11:00,
2013-05-21 14:21:00,59.0,49.0,-100.00,SW,220,16.0,19.0,70,0.00,,,-99.99,,2013-05-21 19:21:00,
2013-05-21 14:32:00,58.0,49.0,-100.00,SSW,210,16.0,22.0,71,0.00,,,-99.99,,2013-05-21 19:32:00,
2013-05-21 14:42:00,58.0,49.0,-100.00,SW,220,14.0,18.0,71,0.00,,,-99.99,,2013-05-21 19:42:00,
2013-05-21 14:52:00,58.0,49.0,-100.00,SW,215,14.0,21.0,71,0.00,,,-99.99,,2013-05-21 19:52:00,
2013-05-21 15:03:00,58.0,49.0,-100.00,SW,220,14.0,19.0,71,0.00,,,-99.99,,2013-05-21 20:03:00,
2013-05-21 15:11:00,58.0,49.0,-100.00,SW,220,16.0,22.0,72,0.00,,,-99.99,,2013-05-21 20:11:00,
2013-05-21 15:22:00,59.0,50.0,-100.00,SW,220,21.0,26.0,71,0.00,,,-99.99,,2013-05-21 20:22:00,
2013-05-21 15:32:00,60.0,50.0,-100.00,WSW,240,22.0,27.0,70,0.00,,,-99.99,,2013-05-21 20:32:00,
2013-05-21 15:42:00,60.0,50.0,-100.00,SW,220,17.0,24.0,70,0.00,,,-99.99,,2013-05-21 20:42:00,
2013-05-21 15:52:00,59.0,49.0,-100.00,SW,225,21.0,24.0,69,0.00,,,-99.99,,2013-05-21 20:52:00,
2013-05-21 16:02:00,60.0,50.0,-100.00,SW,220,19.0,23.0,69,0.00,,,-99.99,,2013-05-21 21:02:00,
2013-05-21 16:11:00,60.0,50.0,-100.00,SW,220,19.0,23.0,69,0.00,,,-99.99,,2013-05-21 21:11:00,
2013-05-21 16:21:00,60.0,50.0,-100.00,SW,220,19.0,23.0,69,0.00,,,-99.99,,2013-05-21 21:21:00,
2013-05-21 16:33:00,61.0,50.0,-100.00,WSW,240,21.0,26.0,67,0.00,,,-99.99,,2013-05-21 21:33:00,
2013-05-21 16:43:00,60.0,49.0,-100.00,SW,235,18.0,24.0,67,0.00,,,-99.99,,2013-05-21 21:43:00,
2013-05-21 16:54:00,60.0,50.0,-100.00,SW,230,17.0,19.0,68,0.00,,,-99.99,,2013-05-21 21:54:00,
2013-05-21 17:02:00,61.0,51.0,-100.00,SW,230,21.0,24.0,69,0.00,,,-99.99,,2013-05-21 22:02:00,
2013-05-21 17:12:00,61.0,51.0,-100.00,SW,235,20.0,25.0,69,0.00,,,-99.99,,2013-05-21 22:12:00,
2013-05-21 17:22:00,61.0,51.0,-100.00,WSW,250,16.0,21.0,69,0.00,,,-99.99,,2013-05-21 22:22:00,
2013-05-21 17:33:00,62.0,52.0,-100.00,WSW,240,18.0,22.0,69,0.00,,,-99.99,,2013-05-21 22:33:00,
2013-05-21 17:42:00,61.0,51.0,-100.00,WSW,250,16.0,21.0,70,0.00,,,-99.99,,2013-05-21 22:42:00,
2013-05-21 17:52:00,60.0,51.0,-100.00,SW,235,17.0,21.0,70,0.00,,,-99.99,,2013-05-21 22:52:00,
2013-05-21 18:02:00,60.0,51.0,-100.00,SW,225,16.0,19.0,71,0.00,,,-99.99,,2013-05-21 23:02:00,
2013-05-21 18:12:00,60.0,51.0,-100.00,SW,235,12.0,19.0,72,0.00,,,-99.99,,2013-05-21 23:12:00,
2013-05-21 18:22:00,60.0,51.0,-100.00,SW,235,12.0,19.0,72,0.00,,,-99.99,,2013-05-21 23:22:00,
2013-05-21 18:32:00,60.0,52.0,-100.00,SW,225,10.0,15.0,74,0.00,,,-99.99,,2013-05-21 23:32:00,
2013-05-21 18:42:00,60.0,52.0,-100.00,SW,215,14.0,16.0,74,0.00,,,-99.99,,2013-05-21 23:42:00,
2013-05-21 18:52:00,59.0,52.0,-100.00,SW,230,15.0,19.0,77,0.00,,,-99.99,,2013-05-21 23:52:00,
2013-05-21 19:01:00,59.0,53.0,-100.00,SW,215,12.0,17.0,82,0.00,,,-99.99,,2013-05-22 00:01:00,
2013-05-21 19:11:00,58.0,54.0,-100.00,SW,220,10.0,14.0,85,0.00,,,-99.99,,2013-05-22 00:11:00,
2013-05-21 19:21:00,58.0,54.0,-100.00,SW,220,10.0,14.0,85,0.00,,,-99.99,,2013-05-22 00:21:00,
2013-05-21 19:32:00,58.0,55.0,-100.00,SSW,210,13.0,15.0,90,0.24,,,-99.99,,2013-05-22 00:32:00,
2013-05-21 19:41:00,58.0,55.0,-100.00,SSW,210,9.0,13.0,91,0.41,,,-99.99,,2013-05-22 00:41:00,
2013-05-21 19:51:00,58.0,55.0,-100.00,SSW,200,7.0,9.0,92,0.00,,,-99.99,,2013-05-22 00:51:00,
2013-05-21 20:01:00,58.0,55.0,-100.00,SSW,210,7.0,9.0,92,0.00,,,-99.99,,2013-05-22 01:01:00,
2013-05-21 20:11:00,58.0,56.0,-100.00,SSW,205,8.0,10.0,92,0.00,,,-99.99,,2013-05-22 01:11:00,
2013-05-21 20:21:00,58.0,56.0,-100.00,SW,220,11.0,14.0,92,0.24,,,-99.99,,2013-05-22 01:21:00,
2013-05-21 20:32:00,58.0,55.0,-100.00,SW,225,9.0,14.0,92,0.48,,,-99.99,,2013-05-22 01:32:00,
2013-05-21 20:42:00,57.0,55.0,-100.00,SW,225,7.0,11.0,93,0.45,,,-99.99,,2013-05-22 01:42:00,
2013-05-21 20:52:00,57.0,55.0,-100.00,SW,230,12.0,14.0,93,0.41,,,-99.99,,2013-05-22 01:52:00,
2013-05-21 21:01:00,56.0,55.0,-100.00,NW,325,13.0,15.0,93,0.00,,,-99.99,,2013-05-22 02:01:00,
2013-05-21 21:11:00,56.0,54.0,-100.00,NNW,335,9.0,13.0,93,0.00,,,-99.99,,2013-05-22 02:11:00,
2013-05-21 21:21:00,56.0,54.0,-100.00,NNW,335,7.0,10.0,93,0.00,,,-99.99,,2013-05-22 02:21:00,
2013-05-21 21:32:00,55.0,54.0,-100.00,NNW,345,7.0,8.0,93,0.00,,,-99.99,,2013-05-22 02:32:00,
2013-05-21 21:42:00,55.0,53.0,-100.00,NW,325,6.0,7.0,93,0.00,,,-99.99,,2013-05-22 02:42:00,
2013-05-21 21:51:00,55.0,54.0,-100.00,NW,325,6.0,7.0,93,0.00,,,-99.99,,2013-05-22 02:51:00,
2013-05-21 22:01:00,55.0,54.0,-100.00,NW,315,6.0,6.0,93,0.00,,,-99.99,,2013-05-22 03:01:00,
2013-05-21 22:11:00,55.0,53.0,-100.00,NW,315,6.0,6.0,93,0.00,,,-99.99,,2013-05-22 03:11:00,
2013-05-21 22:21:00,55.0,53.0,-100.00,NW,320,6.0,7.0,93,0.00,,,-99.99,,2013-05-22 03:21:00,
2013-05-21 22:33:00,55.0,53.0,-100.00,NW,325,4.0,7.0,93,0.00,,,-99.99,,2013-05-22 03:33:00,
2013-05-21 22:43:00,55.0,54.0,-100.00,NNW,335,4.0,6.0,93,0.00,,,-99.99,,2013-05-22 03:43:00,
2013-05-21 22:53:00,55.0,53.0,-100.00,NNW,345,6.0,6.0,93,0.00,,,-99.99,,2013-05-22 03:53:00,
2013-05-21 23:03:00,55.0,53.0,-100.00,NNW,340,6.0,6.0,93,0.00,,,-99.99,,2013-05-22 04:03:00,
2013-05-21 23:13:00,55.0,53.0,-100.00,NNW,340,6.0,6.0,93,0.00,,,-99.99,,2013-05-22 04:13:00,
2013-05-21 23:22:00,55.0,53.0,-100.00,NNW,340,6.0,8.0,93,0.00,,,-99.99,,2013-05-22 04:22:00,
2013-05-21 23:33:00,55.0,53.0,-100.00,North,10,4.0,6.0,93,0.00,,,-99.99,,2013-05-22 04:33:00,
2013-05-21 23:43:00,55.0,53.0,-100.00,NW,325,4.0,5.0,93,0.00,,,-99.99,,2013-05-22 04:43:00,
2013-05-21 23:53:00,55.0,53.0,-100.00,NNW,345,4.0,6.0,93,0.00,,,-99.99,,2013-05-22 04:53:00,